Location: Unspecified
(33.4390°N, 83.7350°W)
Time: 12:52:32
(UTC-05:00)

Daily predictions for brighter satellites

Satellite Brightness Start Highest point End
(mag) Time Altitude Azimuth Time Altitude Azimuth Time Altitude Azimuth
H-2A ROCKET BODY 4.4 17:55:26 10° SW 18:01:22 48° SE 18:31:37 10° E
Cosmos 1076 Rocket 4.4 18:10:27 10° SSE 18:14:13 30° E 18:18:02 10° NNE
Cosmos 1992 Rocket 4.0 18:09:24 10° S 18:14:34 76° ESE 18:19:46 10° NNE
CSL-04 Debris 4.3 18:10:10 10° SSE 18:15:35 89° ENE 18:21:04 10° NNW
FENGYUN 3A 4.4 18:12:14 10° SE 18:16:48 30° ENE 18:21:23 10° N
Meteor 1-28 Rocket 4.0 18:13:19 10° N 18:17:04 56° WNW 18:20:46 10° SSW
NOSS 2-1 (C) 4.3 18:13:55 10° SW 18:17:24 41° NW 18:21:05 10° NNE
NOSS 2-1 (D) 4.4 18:14:36 10° SW 18:18:03 39° NW 18:21:42 10° NNE
Cosmos 1400 Rocket 3.2 18:14:31 10° SSE 18:18:17 41° E 18:22:07 10° NNE
USA 116 4.1 18:14:43 10° NNE 18:18:59 87° ESE 18:23:46 10° SSW
KORONAS-FOTON 3.7 18:15:31 10° S 18:19:19 78° E 18:23:07 10° N
Cosmos 2084 3.7 18:16:41 10° NNW 18:20:15 37° NE 18:23:54 10° SE
Okean 3 Rocket 4.1 18:17:27 10° SSE 18:21:41 40° E 18:25:55 10° NNE
OAO 3 Rocket 3.2 18:23:06 10° WSW 18:27:48 88° SSE 18:32:27 11° ENE
Cosmos 2154 Rocket 4.2 18:23:15 10° N 18:29:34 81° W 18:35:54 10° S
Cosmos 2181 Rocket 4.1 18:25:56 10° S 18:32:19 75° E 18:38:45 10° N
Cosmos 1943 3.5 18:27:46 10° SSW 18:33:22 70° WNW 18:39:00 10° NNE
SKYMED 2 3.5 18:35:11 10° NNE 18:39:33 87° ESE 18:43:52 10° SSW
Cosmos 968 Rocket 4.0 18:35:01 10° N 18:39:45 35° ENE 18:44:24 10° SE
METEOR-M 4.1 18:34:35 10° SSE 18:39:56 84° ENE 18:45:19 10° N
ATLAS 2AS CENTAUR R/B 2.9 18:33:12 10° NNW 18:40:59 61° ENE 18:48:04 10° SE
Lacrosse 5 rocket 3.7 18:39:31 10° WNW 18:43:30 31° WSW 18:47:33 10° S
Cosmos 1726 2.0 18:40:12 10° N 18:43:52 79° E 18:47:30 10° S
ALOS 2.3 18:39:29 10° SSE 18:44:02 55° ENE 18:48:36 10° N
YAOGAN 1 2.6 18:40:47 10° S 18:45:06 84° W 18:49:26 10° NNW
CZ-4 R/B 2.4 18:41:43 10° S 18:45:47 52° W 18:49:56 10° NNW
EO 1 Del DPAF 3.1 18:45:59 10° NNE 18:49:47 69° E 18:53:36 10° S
Meteor 2-16 Rocket 4.4 18:50:01 10° N 18:56:09 82° E 19:02:15 10° S
Cosmos 2218 Rocket 3.9 18:56:03 10° N 19:02:10 65° E 19:08:14 10° SSE
SL-8 Rocket 3.9 18:57:00 10° N 19:03:13 81° E 19:09:26 10° S
Cosmos 2263 4.1 18:59:42 10° NNW 19:05:29 78° ENE 19:11:12 10° SSE
Thor Agena Rocket 4.2 19:02:12 16° NE 19:05:48 34° E 19:10:28 10° SSE
IUS-26 SRM-1 4.3 19:03:44 10° WSW 19:05:48 18° SSW 19:07:08 12° SSE
SL-14 R/B 3.8 19:02:10 10° SSW 19:06:08 61° W 19:10:05 10° N
Meteor 2-10 4.2 19:03:19 10° NNW 19:08:21 74° W 19:13:27 10° S
Cosmos 1959 Rocket 4.4 19:07:47 10° N 19:14:09 82° E 19:20:30 10° S
Cosmos 2369 Rocket 2.9 19:12:28 10° NNW 19:18:00 56° WSW 19:23:32 10° S
SPOT 3 Rocket 3.6 19:12:58 10° SSE 19:18:06 84° WSW 19:23:16 10° NNW
SL-08 R/B 4.3 19:11:58 10° N 19:18:09 71° E 19:24:14 10° SSE
Cosmos 2221 4.1 19:16:28 10° NNW 19:20:31 38° W 19:24:33 10° SSW
TSX-5 3.5 19:18:16 10° SSW 19:21:24 65° WNW 19:22:33 35° N
Cosmos 1315 Rocket 3.2 19:17:46 10° SSW 19:21:41 61° W 19:25:34 10° N
Cosmos 1408 Rocket 3.4 19:17:47 10° S 19:22:06 87° WNW 19:26:24 10° N
Cosmos 1626 2.0 19:19:31 10° S 19:23:12 88° E 19:25:21 24° N
Cosmos 1300 3.4 19:19:51 10° NNW 19:23:35 55° W 19:27:19 10° S
USA 81 4.2 19:24:54 10° SSE 19:29:55 46° E 19:31:24 37° NE
GPS 2-05 Rocket1 4.4 19:28:33 10° W 19:31:05 24° SSW 19:31:51 21° S
GEOS 3 Rocket 3.8 19:29:52 35° ESE 19:31:43 51° NE 19:36:54 10° NNW
Meteor 1-11 4.1 19:27:55 10° S 19:33:29 87° E 19:39:07 10° N
Meteor 1-27 4.3 19:28:46 10° N 19:34:22 55° E 19:40:00 10° SSE
Cosmos 44 3.2 19:31:02 10° SW 19:35:18 69° WNW 19:36:53 37° NNE
ERS-2 3.0 19:33:41 10° S 19:37:15 50° W 19:40:50 10° NNW
Cosmos 1656 Rocket 3.6 19:34:30 10° N 19:39:54 55° ENE 19:41:00 47° ESE
Cosmos 1943 Rocket 2.9 19:35:18 10° NNW 19:40:45 54° WSW 19:46:06 10° S
Cosmos 2366 rocket 4.4 19:37:18 10° NNW 19:43:26 63° W 19:49:30 10° S
Cosmos 1743 Rocket 3.4 19:42:11 10° S 19:46:31 82° ESE 19:46:31 82° ESE
Cosmos 1777 Rocket 3.9 19:43:57 10° N 19:49:05 66° ENE 19:49:05 66° ENE
FengYun 1-2 T 4.3 19:43:40 10° S 19:49:18 78° WSW 19:54:57 10° NNW
Meteor 2-15 4.3 19:43:57 10° S 19:49:58 61° E 19:51:22 49° NE
Cosmos 44 Rocket 3.6 19:47:27 10° SW 19:52:03 60° WNW 19:53:08 46° N
Cosmos 2151 3.4 19:47:53 10° S 19:51:08 53° S 19:51:08 53° S
COSMOS 2406 3.1 19:47:10 10° SSW 19:52:52 75° ESE 19:53:49 61° NE
Nadezhda 3 Rocket 3.9 19:48:10 10° S 19:54:27 90° W 20:00:50 10° N
Cosmos 2058 3.3 19:50:51 10° S 19:54:13 57° SSW 19:54:13 57° SSW
H-2A R/B 3.9 19:51:31 10° S 19:55:05 41° W 19:58:42 10° NNW
ASTRO E2 3.8 19:51:46 10° WSW 19:54:39 37° SSW 19:54:39 37° SSW
Cosmos 2098 Rocket 3.8 19:55:38 10° N 20:00:49 79° W 20:07:18 10° S
OAO 3 Rocket 3.9 20:06:42 10° W 20:10:16 50° WNW 20:10:16 50° WNW
Cosmos 332 Rocket 4.5 20:08:42 10° SSW 20:12:18 49° SW 20:12:18 49° SW
Meteor 2-15 Rocket 4.5 20:08:52 10° S 20:14:08 67° SSE 20:14:08 67° SSE
NOSS 3-4 (A) 4.2 20:47:17 10° NW 20:53:32 60° W 20:53:32 60° W
NOSS 3-4 (C) 4.3 20:47:23 10° NW 20:53:33 59° W 20:53:33 59° W
